Location: Pasadena-CA
(34.1440°N, 118.1100°W)
Time: 07:00:32
(UTC-07:00)

NOAA 19 - Pass Details

Date: 01 July 2022
Orbit: 840 x 861 km, 99.1° (Epoch: 15 August)

Event Time Altitude Azimuth Distance (km) Brightness Sun altitude
Rises 20:41:56 0° 182° (S) 3,417 8.0 -6.8°
Reaches altitude 10° 20:44:24 10° 188° (S) 2,482 7.4 -7.2°
Maximum altitude 20:49:38 44° 260° (W) 1,164 6.4 -8.1°
Drops below altitude 10° 20:54:53 10° 332° (NNW) 2,485 8.8 -9.0°
Sets 20:57:22 0° 339° (NNW) 3,421 9.4 -9.4°
